Weather History for Americus, GA

Change the Weather History Date:

Wednesday, October 30, 2013

  Actual Average (KABY) Record (KABY)
Temperature  
Mean Temperature 66 °F 64 °F  
Max Temperature 80 °F 77 °F 91 °F (1940)
Min Temperature 51 °F 51 °F 29 °F (1963)
Degree Days  
Heating Degree Days 0 4  
Month to date heating degree days 44  
Since 1 July heating degree days 45  
Cooling Degree Days 0 2  
Month to date cooling degree days 144  
Year to date cooling degree days 2500  
Growing Degree Days 16 (Base 50)    
Moisture  
Dew Point 53 °F    
Average Humidity 69    
Maximum Humidity 100    
Minimum Humidity 37    
Precipitation  
Precipitation 0.00 in - 0.01 in (2002)
Sea Level Pressure  
Sea Level Pressure 30.26 in    
Wind  
Wind Speed 2 mph (SE)    
Max Wind Speed 7 mph    
Max Gust Speed -    
Visibility 10 miles    
Events      
T = Trace of Precipitation, MM = Missing Value Source: NWS Daily Summary

Daily Weather History Graph

Daily Weather History Graph

Search for Another Location

Airport:

Trip Planner

Search our weather history database for the weather conditions in past years. The results will help you decide how hot, cold, wet, or windy it might be!

Date:

Astronomy

Oct. 30, 2013 Rise Set
Actual Time 7:52 AM EDT 6:48 PM EDT
Civil Twilight 7:26 AM EDT 7:13 PM EDT
Nautical Twilight 6:57 AM EDT 7:42 PM EDT
Astronomical Twilight 6:29 AM EDT 8:10 PM EDT
Moon 3:53 AM EDT (10/30) 4:21 PM EDT (10/30)
Length of Visible Light 11h 46m
Length of Day
10h 56m
Waning Crescent, 17% of the Moon is Illuminated
Oct 30
Waning Crescent
Nov 3
New
Nov 10
First Quarter
Nov 17
Full
Nov 25
Last Quarter

Hourly Weather History & Observations

Time (EDT) Temp. Dew Point Humidity Pressure Visibility Wind Dir Wind Speed Gust Speed Precip Events Conditions
12:15 AM 59.0 °F 55.4 °F 88% 30.29 in 10.0 mi Calm Calm - N/A   Clear
12:35 AM 60.8 °F 55.4 °F 82% 30.28 in 10.0 mi Calm Calm - N/A   Clear
12:55 AM 60.8 °F 53.6 °F 77% 30.28 in 10.0 mi SE 3.5 mph - N/A   Clear
1:15 AM 60.8 °F 53.6 °F 77% 30.28 in 10.0 mi SSE 4.6 mph - N/A   Clear
1:35 AM 60.8 °F 53.6 °F 77% 30.28 in 10.0 mi South 4.6 mph - N/A   Clear
1:55 AM 60.8 °F 53.6 °F 77% 30.27 in 10.0 mi South 4.6 mph - N/A   Clear
2:15 AM 60.8 °F 53.6 °F 77% 30.28 in 10.0 mi South 4.6 mph - N/A   Clear
2:35 AM 60.8 °F 51.8 °F 72% 30.27 in 10.0 mi South 3.5 mph - N/A   Clear
2:55 AM 60.8 °F 51.8 °F 72% 30.28 in 10.0 mi Calm Calm - N/A   Clear
3:15 AM 57.2 °F 53.6 °F 88% 30.28 in 10.0 mi Calm Calm - N/A   Clear
3:35 AM 59.0 °F 53.6 °F 82% 30.28 in 10.0 mi Calm Calm - N/A   Clear
3:55 AM 55.4 °F 53.6 °F 94% 30.27 in 10.0 mi Calm Calm - N/A   Clear
4:15 AM 55.4 °F 51.8 °F 88% 30.27 in 10.0 mi Calm Calm - N/A   Clear
4:35 AM 55.4 °F 51.8 °F 88% 30.27 in 10.0 mi Calm Calm - N/A   Clear
4:55 AM 55.4 °F 51.8 °F 88% 30.27 in 10.0 mi Calm Calm - N/A   Clear
5:15 AM 53.6 °F 51.8 °F 94% 30.27 in 10.0 mi Calm Calm - N/A   Clear
5:35 AM 53.6 °F 53.6 °F 100% 30.28 in 10.0 mi Calm Calm - N/A   Clear
5:55 AM 53.6 °F 51.8 °F 94% 30.28 in 10.0 mi Calm Calm - N/A   Clear
6:15 AM 53.6 °F 51.8 °F 94% 30.29 in 10.0 mi Calm Calm - N/A   Clear
6:35 AM 53.6 °F 51.8 °F 94% 30.29 in 10.0 mi Calm Calm - N/A   Clear
6:55 AM 53.6 °F 51.8 °F 94% 30.29 in 10.0 mi Calm Calm - N/A   Clear
7:15 AM 53.6 °F 51.8 °F 94% 30.30 in 10.0 mi Calm Calm - N/A   Clear
7:35 AM 53.6 °F 51.8 °F 94% 30.30 in 10.0 mi Calm Calm - N/A   Clear
7:55 AM 51.8 °F 51.8 °F 100% 30.30 in 10.0 mi Calm Calm - N/A   Clear
8:15 AM 53.6 °F 51.8 °F 94% 30.30 in 10.0 mi Calm Calm - N/A   Clear
8:35 AM 53.6 °F 51.8 °F 94% 30.31 in 10.0 mi Calm Calm - N/A   Clear
8:55 AM 55.4 °F 53.6 °F 94% 30.32 in 10.0 mi Calm Calm - N/A   Clear
9:15 AM 59.0 °F 55.4 °F 88% 30.33 in 10.0 mi Calm Calm - N/A   Clear
9:35 AM 60.8 °F 55.4 °F 82% 30.33 in 10.0 mi Calm Calm - N/A   Clear
9:55 AM 62.6 °F 55.4 °F 77% 30.33 in 10.0 mi NE 3.5 mph - N/A   Scattered Clouds
10:15 AM 64.4 °F 55.4 °F 73% 30.33 in 10.0 mi Calm Calm - N/A   Clear
10:35 AM 68.0 °F 55.4 °F 64% 30.34 in 10.0 mi Calm Calm - N/A   Clear
10:55 AM 69.8 °F 55.4 °F 60% 30.34 in 10.0 mi Calm Calm - N/A   Clear
11:15 AM 71.6 °F 53.6 °F 53% 30.34 in 10.0 mi South 4.6 mph - N/A   Clear
11:35 AM 71.6 °F 53.6 °F 53% 30.33 in 10.0 mi Calm Calm - N/A   Clear
11:55 AM 73.4 °F 53.6 °F 50% 30.32 in 10.0 mi SSE 5.8 mph - N/A   Clear
12:15 PM 75.2 °F 51.8 °F 44% 30.30 in 10.0 mi SSE 6.9 mph - N/A   Clear
12:35 PM 77.0 °F 51.8 °F 41% 30.30 in 10.0 mi SE 6.9 mph - N/A   Clear
12:55 PM 77.0 °F 53.6 °F 44% 30.28 in 10.0 mi Calm Calm - N/A   Clear
1:15 PM 78.8 °F 53.6 °F 42% 30.28 in 10.0 mi East 3.5 mph - N/A   Clear
1:35 PM 78.8 °F 53.6 °F 42% 30.26 in 10.0 mi East 5.8 mph - N/A   Clear
1:55 PM 78.8 °F 51.8 °F 39% 30.25 in 10.0 mi SSE 5.8 mph - N/A   Clear
2:15 PM 78.8 °F 51.8 °F 39% 30.24 in 10.0 mi ESE 4.6 mph - N/A   Mostly Cloudy
2:35 PM 78.8 °F 51.8 °F 39% 30.25 in 10.0 mi East 5.8 mph - N/A   Mostly Cloudy
2:55 PM 78.8 °F 51.8 °F 39% 30.24 in 10.0 mi SE 6.9 mph - N/A   Mostly Cloudy
3:15 PM 80.6 °F 51.8 °F 37% 30.23 in 10.0 mi SSW 5.8 mph - N/A   Scattered Clouds
3:35 PM 78.8 °F 51.8 °F 39% 30.22 in 10.0 mi SSE 3.5 mph - N/A   Mostly Cloudy
3:55 PM 78.8 °F 51.8 °F 39% 30.22 in 10.0 mi South 5.8 mph - N/A   Scattered Clouds
4:15 PM 78.8 °F 51.8 °F 39% 30.21 in 10.0 mi SE 5.8 mph - N/A   Clear
4:35 PM 78.8 °F 51.8 °F 39% 30.21 in 10.0 mi East 3.5 mph - N/A   Clear
4:55 PM 78.8 °F 51.8 °F 39% 30.20 in 10.0 mi ESE 4.6 mph - N/A   Clear
5:15 PM 78.8 °F 51.8 °F 39% 30.20 in 10.0 mi SE 5.8 mph - N/A   Scattered Clouds
5:35 PM 77.0 °F 51.8 °F 41% 30.19 in 10.0 mi ESE 3.5 mph - N/A   Scattered Clouds
5:55 PM 77.0 °F 51.8 °F 41% 30.20 in 10.0 mi Calm Calm - N/A   Scattered Clouds
6:15 PM 73.4 °F 55.4 °F 53% 30.19 in 10.0 mi ESE 3.5 mph - N/A   Scattered Clouds
6:35 PM 71.6 °F 55.4 °F 57% 30.19 in 10.0 mi Calm Calm - N/A   Clear
6:55 PM 69.8 °F 55.4 °F 60% 30.20 in 10.0 mi Calm Calm - N/A   Clear
7:15 PM 66.2 °F 55.4 °F 68% 30.20 in 10.0 mi Calm Calm - N/A   Clear
8:55 PM 64.4 °F 55.4 °F 73% 30.19 in 10.0 mi Calm Calm - N/A   Clear
9:15 PM 62.6 °F 55.4 °F 77% 30.20 in 10.0 mi Calm Calm - N/A   Clear
9:35 PM 64.4 °F 55.4 °F 73% 30.20 in 10.0 mi Calm Calm - N/A   Clear
9:55 PM 60.8 °F 55.4 °F 82% 30.20 in 10.0 mi SE 3.5 mph - N/A   Clear
10:15 PM 64.4 °F 55.4 °F 73% 30.21 in 10.0 mi SE 3.5 mph - N/A   Clear
10:35 PM 62.6 °F 53.6 °F 72% 30.21 in 10.0 mi Calm Calm - N/A   Clear
10:55 PM 60.8 °F 55.4 °F 82% 30.21 in 10.0 mi ESE 3.5 mph - N/A   Clear
11:15 PM 60.8 °F 53.6 °F 77% 30.21 in 10.0 mi Calm Calm - N/A   Clear
11:35 PM 62.6 °F 53.6 °F 72% 30.22 in 10.0 mi Calm Calm - N/A   Clear
11:55 PM 59.0 °F 55.4 °F 88% 30.21 in 10.0 mi Calm Calm - N/A   Clear